Showing default

RAY 1.0, 62627

Orbit data source: Space-Track

RAY 1.0, 62627 is a payload satellite owned by Inversion Space (US) in SSO that was launched on Tue, 14 Jan 2025 UTC via an FALCON 9 launch vehicle from the Air Force Western Test Range (AFWTR). Payload-class satellites include a variety of spacecraft equipped with specific instruments for various scientific and technological missions. These include communications satellites like Starlink; space stations such as the ISS; scientific satellites like the Hubble; Earth observation satellites from companies like Planet Labs, Umbra, and HawkEye 360; GPS; miniature CubeSats for education and research; and military/defense satellites.

Loading next visibility...
Identifier
62627, 2025-009U
Orbit
SSO
Country
Flag of USUS
Related business
Manufacturer
Inversion Space
Mission
Operational Commercial Technology
Bus & Motor
RAY, Unknown motor
Mass
63 kg wet, 32 kg dry
Launch date (UTC)
2025-01-14 (1 year ago)
Launch vehicle
FALCON 9
Launch site
Air Force Western Test Range (AFWTR)
Object type
Payload
Rocket body
Debris
Shape & HBR
Box + Cone, 0.6 m
Radar Cross Section
Medium (>0.1 m² and <1 m²)

Expand to show TLE details & history
Last TLE update: 17 hours ago

TLE from 17 hours ago
0 RAY 1.0
1 62627U 25009U   26035.26424718  .00004295  00000-0  20375-3 0  9999
2 62627  97.4100 116.0222 0009534  29.9730 330.2049 15.19765895 58483
Epoch: 2026-02-04T06:20Z
TLE epoch observation values (Epoch: 2026-02-04T06:20:30.956Z)
Latitude
-0.00002°
Longitude
-113.5401°
Altitude
503.942 km
Speed
7.615 km/s
True Right ascension
07h 44m 05s
True Declination
0° 00' 00"
Sunlit
Object was in full shadow at epoch
Visualization orbit readout
Latitude
Unknown
Longitude
Unknown
Altitude
Unknown
Speed
Unknown
Apparent Right ascension
Unknown
Apparent Declination
Unknown
Sunlit
N/A
Visualization observer readout
Local Sidereal Time
01:22:18
Azimuth
Unknown
Elevation
Unknown
Doppler factor
Unknown
Orbital elements
Apogee altitude
510.075 km
Perigee altitude
496.953 km
Semi-major axis
6,881.651 km
Eccentricity
0.00095
Inclination
97.41°
RAAN
116.0222°
Arg. of periapsis
29.973°
True anomaly
330.15056°
Mean anomaly
330.2049°
Eccentric anomaly
330.17773°
Mean motion
3.80193 °/min
Orbital period
94.69 mins
BSTAR
0.00020375
Loading maneuver chart data...
Computing Atmospheric mass density...
Loading historical data...
Loading historical data...
Loading historical data...
Loading historical data...
Loading historical data...
Loading historical data...
Loading historical data...

Documentation

Showing up to 5 results
|